Tracking 35035 objects as of 16-Aug-2026
HD Live streaming from Space Station
objects crossing your sky now

COSMOS 1408 DEB


COSMOS 1408 DEB is no longer on orbit


NORAD ID: 51513
Int'l Code: 1982-092BKL
Launch date: September 16, 1982
Source: Commonwealth of Independent States (former USSR) (CIS)
Launch site: PLESETSK MISSILE AND SPACE COMPLEX (PKMTR)
Decay date: 2022-02-14

Note: This is SATELLITE DEBRIS
Your satellite tracking list
Your tracking list is empty




NASA's NSSDC Master Catalog

Two Line Element Set (TLE):
1 51513U 82092BKN 22042.98234143  .03914715  21539-1  10911-1 0  9994
2 51513  82.5053  31.2888 0027237 181.9566 178.1609 15.96925604  3605
Source of the keplerian elements: AFSPC